This demonstration page uses our WeatherBlox Daily Observations layout. Learn more.

Left ArrowRight Arrow

Hourly Observations for December 30, 2015

Temp ( °F °C ) Dew Point ( °F °C ) Humidity (%) Winds ( mph kmh ) Pressure ( in mb ) Visibility ( mi km ) Precip ( " mm )
12:53 am 00:53 Cloudy 40 4.4 34 1.1 79 79 Calm 30.19 1022 10 16 0.00 0.00
1:53 am 01:53 Cloudy with Light Rain 41 5 35 1.7 79 79 Calm 30.20 1023 8 13 0.00 0.03
2:17 am 02:17 Cloudy with Light Rain 40 4.4 35 1.7 83 83 N 6 9 30.21 1023 10 16 0.01 0.25
2:53 am 02:53 Cloudy with Light Rain 40 4.4 36 2.2 86 86 N 5 7 30.22 1023 6 10 0.02 0.51
3:53 am 03:53 Cloudy with Mist and Fog 40 4.4 37 2.8 89 89 Calm 30.23 1024 6 10 0.00 0.03
4:53 am 04:53 Cloudy 40 4.4 37 2.8 89 89 N 3 6 30.23 1024 8 13 0.01 0.25
5:36 am 05:36 Cloudy 39 4 37 3 93 93 Calm 30.24 1024 9 14 0.00 0.00
5:44 am 05:44 Cloudy 39 4 37 3 93 93 Calm 30.24 1024 8 13 0.00 0.00
5:53 am 05:53 Cloudy 40 4.4 37 2.8 89 89 Calm 30.24 1024 8 13 0.00 0.00
6:53 am 06:53 Cloudy 41 5 37 2.8 86 86 Calm 30.27 1025 9 14 0.00 0.00
7:53 am 07:53 Cloudy 41 5 37 2.8 86 86 Calm 30.28 1026 8 13 0.00 0.00
8:53 am 08:53 Cloudy 42 5.6 37 2.8 82 82 NNW 3 6 30.30 1026 7 11 0.00 0.00
9:50 am 09:50 Cloudy 43 6 37 3 81 81 Calm 30.33 1027 10 16 0.00 0.00
9:53 am 09:53 Cloudy 43 6.1 38 3.3 82 82 NW 3 6 30.33 1027 10 16 0.00 0.00
10:13 am 10:13 Cloudy 43 6.1 38 3.3 82 82 NNW 3 6 30.33 1027 10 16 0.00 0.00
10:53 am 10:53 Cloudy 44 6.7 38 3.3 79 79 Calm 30.33 1027 10 16 0.00 0.00
11:53 am 11:53 Cloudy 45 7.2 38 3.3 77 77 N 3 6 30.31 1026 10 16 0.00 0.00
12:33 pm 12:33 Mostly Cloudy 47 8.3 38 3.3 71 71 NNE 3 6 30.30 1026 10 16 0.00 0.00
12:53 pm 12:53 Cloudy 47 8.3 37 2.8 69 69 NNW 5 7 30.30 1026 10 16 0.00 0.00
1:05 pm 13:05 Cloudy 47 8.3 38 3.3 71 71 N 5 7 30.30 1026 10 16 0.00 0.00
1:53 pm 13:53 Cloudy 47 8.3 37 2.8 69 69 N 8 13 30.29 1026 10 16 0.00 0.00
2:53 pm 14:53 Sunny 49 9.4 37 2.8 64 64 N 7 11 30.28 1026 10 16 0.00 0.00
3:53 pm 15:53 Sunny 49 9.4 35 1.7 59 59 N 6 9 30.28 1025 10 16 0.00 0.00
4:53 pm 16:53 Clear 46 7.8 36 2.2 68 68 Calm 30.28 1025 10 16 0.00 0.00
5:53 pm 17:53 Clear 43 6.1 35 1.7 74 74 NW 6 9 30.28 1025 10 16 0.00 0.00
6:53 pm 18:53 Clear 41 5 35 1.7 79 79 Calm 30.29 1026 10 16 0.00 0.00
7:53 pm 19:53 Clear 39 3.9 33 0.6 79 79 NNW 3 6 30.29 1026 10 16 0.00 0.00
8:53 pm 20:53 Clear 39 3.9 33 0.6 79 79 NW 6 9 30.28 1026 10 16 0.00 0.00
9:53 pm 21:53 Clear 39 3.9 33 0.6 79 79 NW 5 7 30.28 1026 10 16 0.00 0.00
10:53 pm 22:53 Clear 37 2.8 31 -0.6 79 79 Calm 30.29 1026 10 16 0.00 0.00
11:53 pm 23:53 Clear 37 2.8 29 -1.7 73 73 N 3 6 30.29 1026 10 16 0.00 0.00

Powered by AerisWeather